This is the latest recevied weather packets stored in our database for station/object SQ8SW-4. If no packets are shown the sender has not sent any weather packets the latest 10 day(s).
| Time | Temp. | Humidity | Pressure | Rain* | Wind** | Luminosity | Snow |
|---|---|---|---|---|---|---|---|
| 1777938695 | 12.78° C | 62% | 986 hPa | - | - | - | - |
| 1777937793 | 13.33° C | 62% | 986 hPa | - | - | - | - |
| 1777936890 | 13.33° C | 61% | 986 hPa | - | - | - | - |
| 1777935988 | 13.89° C | 57% | 986 hPa | - | - | - | - |
| 1777935086 | 14.44° C | 54% | 986 hPa | - | - | - | - |
| 1777934184 | 15° C | 53% | 986 hPa | - | - | - | - |
| 1777933281 | 15.56° C | 51% | 986 hPa | - | - | - | - |
| 1777932379 | 16.11° C | 52% | 986 hPa | - | - | - | - |
| 1777931476 | 16.67° C | 46% | 986 hPa | - | - | - | - |
| 1777930574 | 17.22° C | 43% | 985 hPa | - | - | - | - |
| 1777929672 | 17.22° C | 41% | 985 hPa | - | - | - | - |
| 1777928769 | 17.78° C | 40% | 985 hPa | - | - | - | - |
| 1777927867 | 18.33° C | 39% | 985 hPa | - | - | - | - |
| 1777926965 | 18.33° C | 38% | 985 hPa | - | - | - | - |
| 1777926063 | 18.89° C | 38% | 985 hPa | - | - | - | - |
| 1777925161 | 18.89° C | 37% | 985 hPa | - | - | - | - |
| 1777924258 | 19.44° C | 36% | 985 hPa | - | - | - | - |
| 1777923356 | 20° C | 35% | 985 hPa | - | - | - | - |
| 1777922454 | 20° C | 35% | 985 hPa | - | - | - | - |
| 1777921551 | 20.56° C | 34% | 985 hPa | - | - | - | - |
| 1777920649 | 20.56° C | 34% | 985 hPa | - | - | - | - |
| 1777919747 | 21.11° C | 33% | 985 hPa | - | - | - | - |
| 1777918845 | 21.67° C | 33% | 984 hPa | - | - | - | - |
| 1777917943 | 22.78° C | 32% | 984 hPa | - | - | - | - |
| 1777917040 | 23.89° C | 31% | 984 hPa | - | - | - | - |
* Rain since midnight (hover to see other rain measurements)
** Current wind speed in m/s (hover to see current wind gust speed)